Temperature
23 22 21 21 20 22 24 24 25 25 26 26 26 26 24 23 23 22 22 22 23 22 21 21 21 21 21 21 21 21 21 21 20 20 20 20 20 20 20 20 20 20 20 20 20 20 20 20 20
23 23 22 21 22 23 24 24 25 26 26 26 26 25 24 23 23 23 23 23 23 22 21 21 21 21 21 21 21 21 21 21 20 20 20 20 20 20 20 20 20 20 20 20 20 20 20 20 20
24 23 22 21 22 23 24 25 25 26 27 27 26 25 24 24 23 24 23 23 22 22 22 21 21 21 21 21 21 21 21 21 20 20 20 20 20 20 20 20 20 20 20 19 20 20 20 20 20
25 24 23 23 24 24 24 25 26 26 27 27 26 24 24 24 24 24 23 23 22 22 22 22 22 21 21 21 20 20 20 20 20 20 20 20 20 20 20 20 20 20 19 19 19 19 19 19 19
25 24 22 23 24 25 25 26 26 27 26 26 26 23 23 23 24 24 23 23 22 22 22 22 22 21 21 21 21 20 20 20 20 20 20 20 20 20 19 19 20 20 20 20 20 20 19 19 19
25 23 22 23 24 26 27 27 26 26 26 26 25 23 23 23 23 23 23 23 22 22 22 21 21 21 21 21 21 20 20 20 20 20 20 20 20 19 19 19 19 19 20 20 20 20 19 19 19
24 20 23 23 24 26 27 27 26 26 26 26 26 23 23 23 23 23 23 22 22 22 22 21 21 21 21 21 20 20 20 20 20 20 20 20 20 19 19 19 19 19 19 19 19 19 19 19 19
25 21 23 23 25 26 26 26 26 26 25 25 26 24 24 23 23 23 22 22 22 21 21 21 21 20 20 20 20 20 19 19 19 19 20 20 20 19 19 19 19 19 19 19 19 19 19 19 19
25 21 22 24 26 27 27 26 26 26 26 25 25 25 25 24 23 22 22 21 21 21 21 21 21 20 20 19 19 19 19 19 19 19 19 19 19 19 19 19 19 19 19 19 19 19 19 19 18
23 21 23 24 26 27 28 27 27 25 24 25 25 25 25 24 22 22 22 22 22 21 22 21 21 21 20 19 19 19 19 19 19 19 19 19 19 19 19 19 19 19 19 19 19 19 18 18 18
23 23 24 25 27 27 27 28 27 25 24 26 26 25 25 24 23 22 23 23 22 22 21 21 21 21 21 20 20 20 19 19 19 18 18 18 19 19 19 19 19 19 19 19 18 18 18 18 18
23 24 25 26 28 27 28 28 26 26 28 28 27 27 26 24 23 22 23 22 22 22 21 21 21 20 20 20 20 19 19 19 19 19 19 19 19 19 19 19 20 19 19 18 18 18 18 18 18
23 24 26 28 28 27 28 28 28 27 28 28 28 26 25 23 23 22 22 22 22 22 22 21 21 20 20 20 20 20 20 20 20 20 19 19 19 19 19 19 19 19 18 18 18 17 18 18 18
24 24 25 26 27 28 27 27 27 26 26 26 26 24 23 23 23 22 22 22 22 22 22 22 21 21 21 20 20 20 20 19 19 19 19 19 18 19 19 19 19 18 18 17 16 17 17 17 17
24 24 24 25 26 27 27 26 25 24 24 24 24 23 22 22 21 22 22 22 22 22 22 21 21 20 21 20 20 20 19 19 19 18 18 18 18 18 18 18 18 18 17 17 17 17 17 17 18
22 23 23 25 25 26 26 24 23 22 23 22 22 22 22 22 22 22 22 22 22 21 21 20 20 20 20 19 19 19 19 18 18 18 18 18 18 18 18 18 17 17 17 17 17 18 17 17 18
22 22 23 24 24 23 24 23 21 21 22 20 20 20 21 21 22 22 22 21 21 21 20 20 20 19 19 19 19 18 18 18 18 17 17 17 17 17 17 17 17 17 17 17 17 17 17 18 18
23 23 23 23 23 22 22 20 19 20 21 20 20 21 21 22 22 22 22 21 21 21 20 20 20 19 19 19 19 19 18 18 17 17 17 17 17 17 17 17 17 17 17 17 17 17 17 17 18
23 24 23 24 23 22 19 18 19 19 19 18 19 20 22 23 23 22 22 22 22 22 21 20 20 20 19 19 19 19 18 18 17 18 18 18 17 17 17 17 17 17 17 17 17 17 17 17 17
23 24 23 23 23 23 21 20 18 18 19 19 19 21 22 22 22 22 21 21 22 21 21 22 21 20 20 20 20 19 18 18 18 17 17 16 16 16 16 16 16 16 17 17 17 16 16 16 16
24 23 23 23 22 22 22 21 19 19 18 19 19 21 21 22 22 22 22 22 22 22 22 21 21 21 20 20 19 18 18 17 17 17 16 16 16 16 16 16 16 16 17 16 16 16 16 16 15
23 24 24 23 22 21 21 20 19 18 17 17 18 20 21 22 22 23 23 23 23 22 22 21 21 20 20 19 19 18 18 17 17 16 16 15 15 15 15 15 16 16 16 16 16 16 15 15 15
23 23 21 21 20 20 19 19 19 17 17 17 17 19 21 22 23 23 24 23 23 22 22 21 21 20 19 19 19 18 18 17 16 16 15 15 15 15 15 15 15 14 14 15 15 14 14 15 15
23 22 18 16 17 19 19 19 19 17 18 18 18 19 21 23 23 23 23 23 23 22 21 21 21 20 20 19 19 18 17 16 16 16 15 15 15 15 15 14 14 13 13 14 14 13 14 15 15
21 20 19 18 18 19 18 18 19 19 18 18 19 21 22 23 23 23 23 23 23 22 22 21 21 20 20 19 19 18 17 16 16 15 14 15 14 14 13 13 13 13 13 13 13 14 15 15 15
21 19 19 18 18 17 18 18 21 20 20 20 21 21 22 23 22 22 23 22 22 22 22 21 21 21 20 20 19 18 16 16 15 14 14 14 14 13 13 13 13 13 13 13 13 14 14 14 14
19 20 19 18 17 16 18 19 21 19 20 20 19 19 18 19 19 20 21 21 21 22 22 22 21 21 20 20 19 18 16 15 15 14 14 14 13 13 13 13 12 12 13 13 14 14 14 14 14
20 20 17 19 18 17 18 17 18 16 17 17 15 14 15 17 18 19 20 21 21 21 22 21 21 20 20 19 18 17 16 15 15 14 14 14 13 13 13 12 12 12 13 13 14 14 13 13 13
21 20 19 17 17 17 17 17 14 13 12 13 11 12 13 15 16 17 18 20 21 20 20 19 19 19 19 18 17 17 16 16 15 14 14 14 13 13 13 13 12 12 12 13 13 13 12 12 13
20 19 18 17 17 15 15 15 13 12 12 12 12 12 13 13 14 15 15 16 16 17 17 17 17 17 17 17 16 16 16 16 15 15 14 14 14 13 13 12 12 11 11 12 12 12 12 12 12
Wind_Speed
4 5 3 2 2 3 2 1 3 5 3 3 2 3 7 3 3 2 2 6 13 14 15 19 20 19 18 17 16 16 17 17 16 15 14 13 12 11 10 10 9 9 8 8 9 8 8 7 7
2 3 2 1 3 4 4 3 4 4 4 4 4 4 4 2 2 5 4 7 14 13 13 14 18 18 18 18 17 18 18 18 17 16 14 13 11 10 10 9 8 8 7 7 7 7 7 7 7
4 2 2 3 4 1 3 4 4 3 4 3 3 3 3 1 2 6 6 12 12 10 13 15 19 18 18 18 18 18 18 18 17 16 15 13 11 10 9 8 8 7 7 6 6 6 6 7 7
3 2 3 3 0 4 4 4 5 2 3 1 4 4 3 1 5 7 12 14 13 10 11 15 19 17 17 16 16 16 16 16 15 14 13 12 11 10 9 9 8 7 7 6 6 6 6 7 7
3 3 4 3 3 3 5 3 5 2 0 2 2 3 2 3 7 11 12 13 13 10 9 15 18 17 16 15 16 16 15 14 13 12 11 10 10 10 9 9 9 9 8 8 8 8 9 9 9
4 4 4 3 6 5 4 4 1 3 2 1 4 5 2 2 7 10 11 10 11 10 8 10 16 17 16 16 16 15 14 13 12 12 11 10 9 9 10 10 10 11 10 10 11 11 11 11 10
3 4 1 3 5 4 3 1 0 2 3 2 3 4 1 3 6 10 10 8 8 8 6 6 11 14 15 14 13 13 13 12 12 12 11 11 10 11 12 12 12 13 13 13 14 14 13 13 12
4 4 1 3 3 3 3 0 2 3 1 4 2 2 4 6 11 10 10 8 7 7 6 5 6 9 10 11 13 13 12 12 12 12 12 12 12 12 12 14 14 15 15 15 16 16 15 15 14
3 4 2 4 2 3 3 4 1 2 1 2 2 1 4 14 14 12 10 7 7 7 6 5 5 5 7 8 11 13 14 14 14 13 14 14 12 12 13 14 14 15 16 17 17 17 17 16 15
3 3 7 6 4 2 3 6 4 3 2 4 2 4 12 17 14 13 12 12 11 11 10 9 8 7 7 7 8 9 12 13 14 14 14 13 12 13 13 13 15 16 18 18 18 18 19 17 13
3 5 5 7 6 5 3 5 4 5 6 9 8 10 15 15 13 12 12 12 12 11 11 11 8 7 7 5 6 7 9 10 12 13 13 12 10 10 10 9 12 12 14 14 14 14 15 14 13
3 8 6 9 7 3 4 4 6 8 7 4 10 16 16 16 14 11 11 10 10 11 13 11 9 7 6 5 4 4 5 7 7 9 11 10 6 6 7 8 9 9 11 10 10 9 11 13 14
5 6 7 9 10 6 3 5 6 6 3 5 14 15 13 11 9 8 8 9 10 10 10 10 10 10 7 6 5 5 6 7 9 9 11 12 7 8 6 9 9 8 8 8 7 6 8 7 11
5 7 8 8 8 5 5 3 3 3 4 8 12 10 9 9 9 8 8 9 9 10 11 10 11 12 11 10 9 6 4 5 5 8 12 14 12 8 9 10 7 7 8 3 2 6 10 10 8
3 6 8 5 4 6 5 2 2 4 8 9 8 8 8 6 7 6 7 8 10 9 8 8 8 8 8 8 7 4 5 6 6 9 13 14 14 11 8 11 8 6 3 10 14 14 11 9 6
3 2 4 7 7 5 4 6 1 6 10 10 10 10 10 7 6 4 6 8 10 8 7 7 6 6 8 8 7 5 7 6 6 9 12 14 15 15 10 9 9 8 11 13 12 11 9 5 4
5 2 4 7 6 4 1 3 3 6 10 11 10 9 8 6 5 3 3 5 7 8 7 5 5 7 8 7 6 6 7 7 7 8 9 11 12 14 9 9 9 9 7 10 11 12 10 7 9
1 2 4 5 7 7 4 5 5 4 9 11 10 8 5 6 3 3 3 4 5 6 6 6 7 7 6 6 6 5 6 6 6 6 7 8 7 7 7 7 8 8 6 7 9 11 10 10 12
2 2 2 5 6 6 7 5 2 2 7 9 8 6 6 4 1 1 0 1 3 3 4 4 5 6 6 3 2 3 4 2 2 3 5 5 6 6 5 6 7 7 7 8 8 8 9 9 7
1 1 4 5 8 5 3 3 4 3 3 7 10 8 6 5 5 5 5 4 4 3 2 3 4 3 3 2 2 3 2 2 2 2 3 4 6 7 5 6 7 7 7 9 9 8 5 5 7
0 2 2 4 7 5 3 5 4 3 1 4 6 7 6 8 9 8 8 7 6 6 6 6 6 5 4 4 2 1 1 1 2 3 3 4 5 6 6 8 8 9 8 9 10 10 10 8 6
3 4 2 4 3 4 1 5 7 5 5 7 9 7 9 10 9 9 9 9 9 9 8 8 7 6 5 4 4 4 2 2 2 2 4 7 7 8 8 9 10 10 9 10 10 11 10 10 8
4 2 3 2 1 3 3 1 5 2 5 9 10 10 12 14 12 10 11 9 7 7 7 6 5 6 5 4 4 3 3 3 2 2 5 6 7 7 8 9 10 11 9 10 11 11 10 9 9
3 4 6 5 3 2 3 0 6 5 8 7 8 11 15 15 10 11 10 6 6 6 7 6 6 8 6 6 6 6 6 4 2 3 5 5 5 7 8 8 8 10 9 10 10 10 11 10 9
6 6 6 7 5 4 3 1 8 8 9 9 13 16 16 10 9 10 10 10 7 7 8 7 6 9 7 6 5 6 6 4 2 4 5 5 6 8 9 9 9 9 9 9 9 9 9 10 10
1 6 4 2 4 6 3 5 6 7 7 7 9 9 6 5 6 8 10 9 9 10 10 7 8 9 6 4 5 5 6 4 3 4 5 5 5 7 9 10 10 11 9 8 8 8 8 7 8
2 3 4 4 0 3 5 6 8 6 6 5 4 6 10 10 9 10 11 10 10 10 9 8 9 8 5 5 5 5 5 4 4 5 5 4 4 6 8 10 11 12 11 9 8 8 9 7 8
2 4 2 0 1 3 5 4 5 13 15 10 10 13 14 14 14 13 13 11 9 8 8 8 6 4 2 5 6 6 6 6 5 5 6 4 4 5 7 9 11 13 11 10 8 8 8 7 5
2 2 3 2 2 3 4 5 4 10 11 7 13 12 10 11 12 14 17 17 14 13 12 10 9 7 6 5 7 7 7 6 6 6 7 5 4 5 7 9 10 11 12 10 8 5 4 3 3
2 3 4 2 3 3 3 4 5 7 11 12 11 11 11 11 12 14 14 15 16 15 14 14 12 10 8 6 6 8 7 7 7 7 8 6 5 5 7 8 8 10 10 9 8 8 7 6 6
Wind_Direction
157 163 141 126 77 60 21 298 292 311 11 347 85 129 133 133 163 211 135 148 133 145 159 164 162 161 158 156 157 154 150 149 147 145 144 144 145 146 145 143 142 140 138 136 136 137 138 138 141
177 127 86 96 76 49 321 308 305 284 164 148 81 58 59 43 79 122 135 146 140 141 149 159 161 159 159 159 162 161 159 157 156 156 155 153 151 152 155 155 154 153 154 154 155 156 157 157 160
187 159 99 68 76 155 264 271 272 274 201 198 107 56 66 22 108 153 151 139 135 136 146 159 164 163 165 165 165 165 165 163 163 164 164 164 164 166 168 168 169 171 173 175 177 179 180 180 184
150 87 32 61 188 217 213 259 264 203 272 29 102 62 39 30 147 150 135 138 135 134 141 160 163 164 167 168 168 170 170 169 168 169 170 173 177 183 186 186 187 190 192 199 204 207 209 210 210
59 68 42 20 271 226 236 240 287 239 318 18 71 93 41 17 101 122 135 140 142 135 136 160 162 165 168 172 176 180 179 176 176 177 180 185 192 201 206 208 207 208 210 216 222 225 228 233 235
45 55 51 333 291 279 256 182 308 298 85 124 102 111 137 94 122 135 138 141 142 140 136 156 167 170 173 176 181 186 187 184 185 188 191 198 207 214 217 220 224 224 223 227 234 238 240 242 243
84 78 181 251 284 297 268 130 24 326 47 337 130 117 227 196 151 138 128 126 127 127 121 137 169 179 179 182 185 191 193 192 193 196 200 207 216 225 225 219 226 232 235 239 243 245 246 244 243
113 95 315 275 299 332 297 207 153 129 242 304 337 177 225 174 140 125 112 112 114 115 114 112 153 176 178 184 191 197 203 204 205 207 213 218 224 231 229 224 230 238 243 247 249 251 252 249 242
102 82 258 235 218 356 345 300 198 133 146 275 277 264 149 131 131 123 118 119 132 146 136 125 128 145 171 183 200 206 211 214 216 218 223 227 229 234 236 236 235 243 249 251 250 251 251 250 249
105 160 224 217 192 168 268 261 208 164 195 241 246 82 123 133 145 148 152 156 169 182 179 170 163 160 164 181 196 206 212 215 215 216 221 225 222 230 239 243 243 245 248 252 254 252 255 254 250
169 225 248 256 219 184 248 253 177 162 224 221 188 150 143 150 163 165 164 170 180 185 191 193 182 176 175 182 188 203 207 214 215 215 216 220 225 235 243 243 244 246 250 253 254 258 255 250 246
235 264 268 286 302 193 201 187 185 197 242 229 155 154 158 169 173 171 172 174 178 185 196 196 192 185 184 184 198 219 215 219 223 221 219 217 222 232 241 242 236 235 242 252 260 258 251 247 246
228 270 267 267 290 275 231 209 200 219 309 126 140 153 162 165 166 174 178 181 184 193 199 198 192 197 194 195 202 209 218 223 226 219 220 219 220 225 231 240 237 237 246 248 253 258 252 244 245
240 270 277 271 259 252 217 204 196 234 129 132 142 146 146 150 151 154 172 185 191 201 205 197 198 200 198 205 213 218 229 253 256 242 234 228 226 224 219 233 226 231 248 284 108 262 255 249 244
284 303 313 299 285 243 189 207 208 118 123 123 115 112 103 103 120 141 164 185 199 204 202 208 203 201 210 222 231 216 218 220 232 236 242 236 232 233 234 236 233 223 241 290 284 274 259 243 240
349 21 345 318 343 313 169 242 113 113 120 111 95 87 80 73 91 138 180 188 197 195 199 213 204 205 213 218 220 216 222 230 240 240 243 247 249 245 242 247 252 237 219 221 234 250 251 237 239
15 359 324 311 349 333 122 238 95 103 105 94 85 92 110 120 119 122 159 180 179 188 194 198 210 221 215 223 225 220 223 232 240 244 249 253 255 253 248 253 261 260 234 213 216 228 221 211 222
227 350 301 298 331 14 41 77 77 79 107 105 105 117 151 129 95 69 90 114 131 143 148 167 208 209 195 204 219 230 243 241 235 244 252 255 260 255 255 258 264 270 260 237 221 231 218 211 217
198 232 259 288 317 38 46 62 7 64 99 108 115 143 161 129 163 232 144 152 118 109 135 163 190 183 176 186 205 239 254 265 252 250 264 288 307 306 289 283 281 279 271 265 246 239 234 225 213
184 323 323 314 342 37 67 49 302 259 178 156 159 178 182 169 208 223 232 225 205 205 200 205 229 212 211 203 210 218 230 257 264 289 305 333 329 314 304 292 289 281 277 269 256 239 238 225 192
261 187 276 302 337 7 33 330 303 285 221 142 177 195 191 202 210 217 223 226 227 227 229 235 235 231 232 219 219 250 302 322 328 316 319 326 320 311 303 300 296 287 275 265 256 244 236 243 221
300 231 249 292 336 302 357 281 283 274 272 202 197 206 216 231 229 221 221 222 220 222 223 230 228 230 232 217 222 222 215 227 233 280 313 317 327 325 322 315 306 293 283 275 263 247 238 235 237
271 57 35 356 339 290 335 268 275 303 263 228 212 210 219 227 221 222 228 229 227 228 229 232 244 260 268 261 239 224 230 243 276 321 316 314 317 314 313 314 302 295 286 279 270 257 244 237 235
25 59 37 34 48 303 294 240 275 207 217 222 223 223 224 228 224 235 242 242 235 237 238 229 233 255 254 244 229 210 221 225 256 315 314 313 311 311 309 308 313 309 299 295 290 274 255 247 241
47 43 6 355 357 275 278 236 257 242 227 209 212 222 229 233 239 248 253 255 254 258 251 235 224 252 251 238 211 196 190 184 225 292 295 303 313 321 319 320 318 312 302 294 292 287 272 256 249
82 126 156 228 268 295 281 239 258 255 264 240 230 238 254 270 286 283 278 283 274 265 258 241 228 243 248 229 200 173 166 176 209 257 263 274 289 300 304 310 307 297 294 293 294 289 277 267 257
184 161 150 137 232 293 281 294 305 327 290 264 290 359 17 7 357 341 326 313 294 279 272 243 232 237 237 227 204 183 191 202 227 253 254 261 282 298 308 314 314 308 301 294 293 286 280 271 258
116 131 113 81 188 272 284 279 279 326 314 337 34 46 41 36 30 18 9 353 336 340 338 332 318 292 267 223 211 207 207 216 234 257 272 280 287 299 310 321 323 323 322 319 308 289 285 277 270
7 43 73 127 156 210 259 275 346 319 319 31 66 56 41 37 29 23 21 21 20 26 21 4 351 343 309 263 231 221 215 220 234 249 263 271 286 300 314 323 326 332 338 350 354 353 324 295 324
176 137 124 117 272 197 215 266 32 26 55 70 60 39 25 24 21 19 16 15 19 19 14 7 357 340 311 283 257 243 228 221 231 247 262 271 282 303 312 318 334 341 348 3 18 37 40 22 32
Height
1508 1507 1507 1509 1513 1515 1516 1510 1503 1499 1496 1495 1495 1495 1497 1501 1504 1511 1502 1502 1508 1512 1515 1519 1523 1526 1529 1532 1535 1537 1539 1540 1542 1544 1546 1548 1549 1550 1552 1552 1553 1553 1554 1554 1554 1555 1555 1556 1556
1507 1507 1508 1509 1515 1526 1520 1508 1503 1498 1496 1496 1497 1497 1498 1499 1499 1500 1501 1504 1509 1513 1517 1520 1524 1527 1530 1533 1535 1537 1539 1541 1543 1545 1547 1548 1549 1551 1552 1553 1554 1554 1555 1555 1555 1556 1556 1557 1557
1506 1506 1508 1509 1518 1523 1519 1506 1500 1496 1495 1496 1497 1499 1501 1501 1501 1501 1504 1506 1510 1515 1518 1521 1525 1528 1530 1533 1535 1538 1540 1542 1544 1546 1547 1548 1549 1551 1552 1553 1553 1555 1556 1556 1556 1557 1557 1557 1558
1507 1508 1509 1513 1516 1511 1507 1501 1498 1496 1495 1496 1497 1500 1502 1503 1504 1505 1506 1509 1512 1516 1519 1522 1525 1528 1531 1534 1537 1540 1542 1544 1545 1547 1548 1549 1550 1550 1551 1552 1553 1554 1555 1556 1556 1557 1557 1558 1558
1507 1507 1514 1519 1513 1506 1500 1499 1498 1497 1496 1497 1498 1501 1503 1504 1505 1506 1509 1512 1515 1517 1520 1523 1526 1529 1532 1535 1538 1540 1542 1544 1546 1547 1548 1549 1550 1550 1551 1551 1552 1553 1554 1555 1555 1556 1556 1557 1557
1507 1509 1522 1526 1515 1502 1496 1496 1498 1498 1497 1498 1498 1501 1503 1505 1506 1508 1510 1513 1516 1519 1521 1524 1527 1530 1533 1535 1537 1540 1542 1544 1545 1547 1548 1549 1549 1549 1550 1550 1551 1551 1552 1553 1554 1555 1555 1555 1555
1509 1515 1522 1522 1517 1506 1497 1497 1498 1498 1499 1500 1500 1501 1502 1503 1506 1508 1511 1514 1516 1519 1521 1524 1527 1530 1533 1536 1538 1540 1541 1543 1544 1546 1547 1548 1549 1549 1549 1549 1550 1551 1551 1552 1552 1553 1553 1553 1553
1508 1514 1520 1519 1514 1507 1499 1498 1498 1499 1501 1503 1501 1501 1501 1503 1504 1507 1510 1514 1516 1518 1521 1524 1527 1530 1532 1535 1537 1539 1541 1543 1544 1545 1546 1546 1547 1547 1547 1548 1548 1549 1549 1549 1550 1550 1550 1551 1551
1509 1519 1523 1515 1509 1504 1500 1500 1499 1499 1500 1502 1501 1501 1503 1503 1504 1507 1510 1513 1516 1518 1521 1523 1527 1529 1532 1534 1535 1537 1538 1540 1542 1543 1544 1544 1545 1545 1545 1546 1546 1546 1546 1546 1547 1547 1548 1548 1548
1509 1519 1514 1503 1500 1501 1499 1499 1499 1499 1500 1499 1499 1499 1501 1502 1504 1506 1509 1512 1515 1517 1520 1523 1526 1529 1530 1533 1534 1535 1536 1537 1539 1540 1541 1541 1542 1543 1543 1543 1543 1543 1543 1543 1543 1543 1545 1545 1545
1507 1508 1501 1496 1496 1497 1498 1497 1497 1498 1499 1495 1494 1496 1500 1502 1504 1507 1510 1514 1517 1520 1521 1523 1525 1527 1529 1530 1532 1533 1534 1535 1536 1537 1538 1538 1539 1539 1540 1540 1540 1539 1539 1539 1540 1540 1541 1542 1542
1507 1500 1497 1493 1491 1493 1494 1495 1495 1495 1493 1493 1494 1495 1497 1500 1503 1508 1512 1515 1518 1520 1522 1525 1526 1527 1528 1529 1531 1532 1533 1533 1533 1534 1535 1535 1535 1535 1535 1536 1536 1535 1536 1538 1539 1538 1538 1538 1538
1505 1500 1496 1493 1491 1490 1492 1493 1492 1492 1493 1492 1494 1497 1499 1502 1506 1510 1513 1516 1519 1521 1524 1525 1526 1527 1528 1528 1528 1530 1530 1530 1531 1531 1532 1532 1532 1532 1532 1533 1533 1533 1536 1538 1537 1536 1535 1534 1534
1501 1498 1494 1491 1490 1489 1490 1490 1492 1491 1492 1493 1495 1498 1501 1504 1507 1510 1513 1516 1519 1521 1523 1525 1525 1526 1527 1527 1527 1527 1527 1527 1527 1528 1529 1530 1530 1529 1528 1528 1529 1531 1533 1535 1533 1531 1529 1529 1530
1499 1498 1493 1489 1488 1486 1487 1492 1491 1491 1492 1494 1497 1501 1504 1507 1510 1512 1513 1516 1518 1520 1522 1524 1525 1525 1526 1525 1525 1524 1524 1524 1524 1526 1526 1525 1525 1524 1523 1523 1524 1526 1525 1525 1525 1523 1522 1523 1523
1501 1504 1506 1494 1489 1485 1490 1499 1490 1491 1492 1495 1500 1503 1506 1508 1510 1512 1514 1514 1516 1518 1521 1523 1523 1523 1523 1523 1523 1521 1521 1521 1522 1522 1522 1520 1519 1520 1521 1520 1519 1520 1520 1518 1518 1517 1516 1517 1515
1508 1514 1510 1501 1491 1488 1490 1496 1493 1493 1495 1499 1503 1505 1507 1509 1511 1511 1512 1513 1514 1517 1519 1520 1521 1520 1520 1519 1519 1518 1518 1517 1518 1518 1517 1516 1515 1514 1515 1513 1510 1510 1511 1510 1510 1508 1508 1506 1506
1514 1512 1510 1507 1494 1492 1494 1499 1498 1496 1496 1500 1503 1507 1509 1508 1510 1511 1512 1513 1514 1515 1516 1517 1518 1517 1516 1516 1516 1516 1515 1514 1514 1514 1514 1513 1512 1510 1508 1506 1503 1501 1500 1500 1501 1501 1500 1499 1500
1507 1508 1509 1503 1494 1497 1503 1505 1501 1499 1499 1501 1503 1505 1507 1508 1510 1510 1512 1514 1514 1515 1515 1516 1516 1515 1515 1516 1516 1514 1513 1512 1512 1510 1509 1508 1506 1504 1502 1500 1497 1495 1493 1491 1491 1492 1492 1492 1494
1504 1507 1508 1502 1495 1497 1503 1506 1503 1502 1500 1501 1503 1505 1505 1506 1507 1508 1511 1512 1513 1514 1514 1515 1514 1514 1515 1514 1513 1511 1510 1509 1508 1507 1505 1504 1502 1500 1496 1494 1492 1491 1488 1486 1486 1485 1484 1484 1486
1505 1508 1507 1507 1501 1499 1505 1511 1507 1502 1501 1502 1504 1504 1505 1505 1505 1506 1508 1510 1511 1512 1513 1514 1513 1513 1514 1513 1511 1509 1507 1506 1506 1504 1503 1500 1498 1494 1491 1488 1486 1484 1482 1480 1479 1479 1478 1477 1478
1509 1500 1501 1504 1510 1515 1512 1527 1513 1505 1504 1501 1502 1503 1503 1503 1503 1504 1506 1508 1509 1510 1511 1512 1512 1511 1511 1510 1508 1506 1504 1503 1502 1499 1497 1495 1492 1489 1485 1481 1479 1477 1474 1472 1470 1470 1470 1471 1471
1501 1497 1503 1506 1513 1516 1515 1522 1515 1509 1507 1502 1501 1500 1500 1500 1500 1502 1504 1505 1506 1507 1508 1508 1509 1509 1508 1507 1505 1503 1501 1500 1498 1495 1492 1489 1487 1483 1478 1474 1471 1469 1466 1464 1462 1462 1463 1463 1464
1497 1501 1511 1518 1524 1529 1520 1525 1520 1508 1501 1497 1496 1495 1496 1495 1497 1499 1500 1502 1502 1503 1504 1505 1506 1506 1505 1503 1502 1500 1498 1497 1495 1491 1488 1484 1480 1476 1471 1468 1466 1463 1461 1458 1456 1456 1457 1457 1457
1502 1514 1533 1536 1539 1532 1524 1526 1515 1495 1490 1489 1489 1489 1489 1492 1494 1496 1497 1498 1499 1500 1501 1502 1502 1503 1502 1499 1498 1496 1494 1493 1491 1488 1484 1480 1475 1470 1467 1465 1462 1458 1455 1454 1452 1451 1451 1450 1450
1505 1515 1536 1546 1547 1539 1525 1524 1503 1488 1486 1486 1487 1488 1489 1491 1493 1494 1495 1495 1495 1496 1496 1497 1498 1498 1497 1496 1494 1491 1489 1489 1487 1484 1480 1476 1472 1468 1464 1461 1458 1455 1451 1448 1447 1446 1444 1444 1443
1511 1511 1514 1527 1538 1544 1528 1512 1494 1488 1486 1485 1486 1490 1492 1493 1493 1492 1491 1491 1491 1491 1491 1492 1493 1493 1494 1493 1491 1489 1487 1486 1483 1480 1477 1474 1470 1466 1463 1460 1456 1452 1448 1444 1442 1441 1440 1438 1438
1502 1505 1522 1523 1539 1545 1528 1525 1514 1502 1496 1493 1495 1495 1493 1491 1491 1490 1488 1488 1488 1488 1487 1488 1489 1490 1491 1491 1488 1485 1483 1482 1480 1477 1474 1471 1467 1463 1460 1458 1454 1450 1445 1441 1438 1436 1435 1433 1433
1506 1510 1515 1525 1528 1537 1538 1529 1519 1514 1505 1503 1502 1500 1496 1494 1491 1489 1487 1486 1486 1485 1484 1485 1486 1487 1489 1488 1484 1481 1480 1478 1476 1474 1471 1468 1464 1461 1458 1455 1451 1448 1443 1438 1434 1432 1430 1429 1428
1504 1508 1515 1529 1529 1532 1537 1533 1518 1515 1510 1508 1508 1506 1503 1500 1496 1493 1491 1489 1487 1485 1484 1484 1484 1484 1484 1483 1481 1478 1476 1474 1473 1471 1468 1465 1462 1460 1457 1453 1450 1447 1443 1438 1434 1432 1429 1429 1428